Flag for Germany Weather past 2 weeks in Böblingen, Baden-Württemberg, Germany

Now
68 °F

Thundershowers. Scattered clouds.


Feels Like: 68 °F
Forecast: 52 / 66 °F
Wind: 2 mph from Southwest

Location: Stuttgart-Echterdingen

Current Time: Sep 20, 2014 at 6:57:51 PM

Latest Report: Sep 20, 2014 at 3:20 PM


Visibility: N/A

Pressure: 30.01 "Hg

Humidity: 83%

Dew point: 63 °F

Location of BöblingenLocation

Historic Weather in Böblingen — Graph

°F

Böblingen temperature yesterday

Maximum temperature yesterday: 75 °F (at 1:20 PM)
Minimum temperature yesterday: 55 °F (at 3:50 AM)
Average temperature yesterday: 65 °F

Past Weeks' High & Low Weather Summary

 TemperatureHumidityPressure
High77 °F (Sep 6, 2:50 PM)100% (Sep 6, 1:20 AM)30.15 "Hg (Sep 6, 1:20 AM)
Low52 °F (Sep 11, 1:50 AM)50% (Sep 5, 5:20 PM)29.89 "Hg (Sep 17, 2:50 PM)
Average62 °F84%30.01 "Hg
* Reported Sep 5 3:20 PM — Sep 20 3:20 PM, Böblingen, Weather by CustomWeather, © 2014

Note: Actual official high and low records may vary slightly from our data, if they occured in-between our weather recording intervals... More about our weather records

Advertising

Böblingen weather history for previous 24 hours

 ConditionsComfort  
Time TempWeatherWind HumidityBarometerVisibility
3:20 PM
Sep 20
68 °FThundershowers. Scattered clouds.2 mph83%30.01 "HgN/A
2:50 PM68 °FThundershowers. Scattered clouds.5 mph83%30.01 "HgN/A
2:20 PM68 °FScattered showers. Partly sunny.1 mph78%30.01 "HgN/A
1:50 PM70 °FSprinkles. Partly sunny.3 mph69%30.01 "HgN/A
1:20 PM73 °FScattered showers. Scattered clouds.3 mph65%30.01 "HgN/A
12:50 PM72 °FPassing clouds.3 mph65%30.01 "HgN/A
12:20 PM72 °FPassing clouds.2 mph69%30.01 "HgN/A
11:50 AM70 °FPassing clouds.3 mph73%30.01 "HgN/A
11:20 AM68 °FPassing clouds.3 mph73%30.01 "HgN/A
10:50 AM66 °FPassing clouds.5 mph83%30.01 "HgN/A
10:20 AM64 °FScattered clouds.3 mph83%30.01 "HgN/A
9:50 AM64 °FScattered clouds.2 mph83%30.01 "HgN/A
9:20 AM63 °FSprinkles. Scattered clouds.1 mph88%30.01 "HgN/A
8:50 AM63 °FSprinkles. Fog.1 mph88%30.01 "HgN/A
8:20 AM61 °FFog.1 mph100%30.01 "HgN/A
7:50 AM61 °FSprinkles. Partly cloudy.2 mph94%30.01 "HgN/A
7:20 AM61 °FScattered showers. Passing clouds.2 mph94%30.01 "HgN/A
6:50 AM63 °FSprinkles. Partly cloudy.5 mph88%30.01 "HgN/A
6:20 AM63 °FLight rain. Partly cloudy.1 mph88%30.01 "HgN/A
5:50 AM61 °FSprinkles. Partly cloudy.2 mph94%30.01 "HgN/A
5:20 AM63 °FSprinkles. Passing clouds.2 mph88%30.01 "HgN/A
4:50 AM63 °FSprinkles. Passing clouds.No wind88%30.01 "HgN/A
4:20 AM61 °FSprinkles. Passing clouds.1 mph100%30.01 "HgN/A
3:20 AM59 °FClear.2 mph100%30.01 "Hg10 mi
2:50 AM59 °FClear.2 mph100%30.01 "Hg10 mi
2:20 AM59 °FClear.1 mph100%30.01 "Hg10 mi
1:50 AM61 °FClear.1 mph94%30.01 "Hg10 mi
1:20 AM61 °FClear.2 mph94%30.01 "Hg10 mi
12:50 AM61 °FClear.2 mph94%30.01 "Hg10 mi
12:20 AM61 °FClear.2 mph94%30.01 "Hg10 mi
11:20 PM
Sep 19
61 °FClear.No wind88%30.01 "Hg10 mi
10:50 PM63 °FClear.2 mph88%30.01 "Hg10 mi
10:20 PM63 °FClear.3 mph88%30.01 "Hg10 mi
9:50 PM64 °FClear.2 mph83%29.98 "Hg10 mi
9:20 PM64 °FClear.1 mph83%29.98 "Hg10 mi
8:50 PM66 °FClear.2 mph78%29.98 "Hg10 mi
8:20 PM66 °FSunny.No wind83%29.98 "Hg10 mi
7:50 PM66 °FSunny.2 mph83%29.98 "Hg10 mi
7:20 PM66 °FPartly sunny.2 mph83%29.98 "HgN/A
6:50 PM68 °FBroken clouds.3 mph83%29.98 "HgN/A
6:20 PM70 °FBroken clouds.3 mph73%29.98 "HgN/A
Weather by CustomWeather, © 2014

See weather overviewHow to use our weather pages